This demonstration page uses our WeatherBlox Daily Observations layout. Learn more.

Left ArrowRight Arrow

38.83388, -104.82136

Hourly Observations for May 16, 2018

Temp ( °F °C ) Dew Point ( °F °C ) Humidity (%) Winds ( mph kmh ) Pressure ( in mb ) Visibility ( mi km ) Precip ( " mm )
12:58 am 00:58 Clear 53 11.8 39 3.8 58 58 S 15 24 29.71 1006 10 16 0.00 0.00
1:58 am 01:58 Clear 55 13 36 2.3 48 48 S 15 24 29.68 1005 10 16 0.00 0.00
2:58 am 02:58 Clear 54 12.4 37 2.5 51 51 S 14 22 29.67 1005 10 16 0.00 0.00
3:58 am 03:58 Clear 53 11.9 37 2.9 54 54 S 5 7 29.68 1005 10 16 0.00 0.00
4:58 am 04:58 Clear 52 11.1 38 3.2 59 59 NE 3 6 29.67 1005 10 16 0.00 0.00
5:58 am 05:58 Sunny 50 9.9 34 1.1 55 55 NW 3 6 29.69 1005 10 16 0.00 0.00
6:58 am 06:58 Sunny 53 11.6 39 3.7 59 59 NE 3 6 29.70 1006 10 16 0.00 0.00
7:58 am 07:58 Sunny 55 12.8 39 3.8 55 55 Calm 29.69 1005 10 16 0.00 0.00
8:58 am 08:58 Sunny 60 15.8 41 4.8 48 48 ESE 3 6 29.68 1005 10 16 0.00 0.00
9:58 am 09:58 Sunny 64 17.8 42 5.4 44 44 ESE 6 9 29.66 1004 10 16 0.00 0.00
10:58 am 10:58 Sunny 69 20.8 20 -6.5 15 15 E 5 7 29.63 1004 10 16 0.00 0.00
11:58 am 11:58 Sunny 72 22.1 22 -5.7 15 15 SE 8 13 29.62 1003 10 16 0.00 0.00
12:58 pm 12:58 Sunny 72 22.3 22 -5.5 15 15 Calm 29.60 1003 10 16 0.00 0.00
1:58 pm 13:58 Sunny 75 23.9 24 -4.5 15 15 E 6 9 29.55 1001 10 16 0.00 0.00
2:58 pm 14:58 Sunny 74 23.3 19 -7.3 12 12 ESE 15 24 29.56 1001 10 16 0.00 0.00
3:58 pm 15:58 Mostly Sunny 75 23.7 16 -8.8 11 11 SSE 14 22 29.52 1000 10 16 0.00 0.00
3:59 pm 15:59 Mostly Sunny 75 24 16 -9 10 10 SSE 14 22 29.52 1000 10 16 0.00 0.00
4:58 pm 16:58 Sunny 73 22.8 17 -8.4 12 12 SE 13 20 29.53 1000 10 16 0.00 0.00
5:58 pm 17:58 Sunny 72 22 16 -8.9 12 12 SSE 16 26 29.54 1000 10 16 0.00 0.00
6:58 pm 18:58 Sunny 70 21 18 -7.7 14 14 S 10 17 29.54 1000 10 16 0.00 0.00
7:58 pm 19:58 Sunny 69 20.4 19 -7.4 15 15 S 12 19 29.54 1001 10 16 0.00 0.00
8:58 pm 20:58 Clear 67 19.7 21 -5.9 17 17 S 13 20 29.54 1000 10 16 0.00 0.00
9:58 pm 21:58 Clear 65 18.6 33 0.5 30 30 S 12 19 29.56 1001 10 16 0.00 0.00
10:58 pm 22:58 Clear 63 17 36 2.1 37 37 SSE 9 15 29.54 1000 10 16 0.00 0.00
11:58 pm 23:58 Clear 61 16.2 42 5.4 49 49 S 5 7 29.53 1000 10 16 0.00 0.00

Powered by AerisWeather